Wind_Speed
19 19 19 20 20 20 21 20 19 20 20 20 20 20 20 20 20 21 21 22 22 23 23 24 24 25 25 25 26 26 27 28 28 27 27 26 26 27 27 27 26 26 26
19 19 19 19 20 20 19 19 20 20 20 20 20 20 21 21 22 23 23 23 23 24 24 25 26 26 27 27 27 28 29 29 30 30 29 29 28 28 28 28 28 28 27
19 20 19 20 20 20 19 19 19 20 20 21 20 21 21 22 22 22 23 24 24 25 25 26 27 28 28 29 29 29 30 31 31 31 31 31 30 29 29 29 29 29 29
21 21 20 20 20 19 19 19 19 19 20 21 21 21 21 21 21 22 23 24 25 26 27 27 28 28 29 30 30 30 31 32 32 32 32 32 32 31 31 31 30 30 30
21 20 19 19 19 19 18 19 19 20 20 21 22 22 22 22 23 23 24 25 26 27 28 28 28 29 30 31 31 31 32 33 33 34 34 33 33 33 32 32 32 32 32
17 17 17 19 18 18 19 19 20 21 20 21 21 21 22 23 23 24 25 26 26 27 28 28 29 29 30 31 32 32 32 34 34 34 35 35 35 35 34 33 34 34 33
17 17 17 18 18 19 19 20 20 20 20 21 21 21 22 22 23 24 25 26 27 27 27 27 28 29 29 30 31 33 33 33 34 35 36 35 35 35 36 35 35 35 35
17 17 18 18 18 19 20 20 20 20 21 21 21 22 22 23 24 24 26 26 27 27 26 26 27 28 30 30 30 32 33 33 34 35 36 36 36 37 37 37 37 36 36
17 17 18 18 19 20 20 20 20 20 21 21 22 22 23 23 24 25 25 26 26 27 27 27 27 28 28 30 30 30 30 31 32 33 35 36 37 38 38 38 38 38 37
18 18 19 19 19 20 20 20 21 21 22 22 22 23 23 24 24 24 25 26 26 26 27 27 27 26 27 28 29 30 31 31 30 31 33 35 36 37 38 38 38 38 38
18 18 19 20 20 20 20 20 21 22 22 23 23 24 24 24 24 24 24 25 26 26 27 27 27 27 27 27 28 28 30 31 31 31 32 33 34 35 35 37 36 37 37
18 19 20 20 20 21 21 21 22 21 22 23 23 24 24 25 24 24 24 25 26 26 27 27 27 27 28 28 28 28 29 30 31 32 32 33 34 34 34 35 35 36 36
19 20 20 20 20 21 21 22 21 21 22 22 23 24 24 25 24 24 24 24 25 25 26 26 26 26 27 27 28 28 29 29 30 31 32 33 34 34 34 34 34 35 36
19 19 20 20 20 20 21 21 22 21 22 22 23 24 24 25 24 24 24 24 24 24 25 26 27 27 27 27 27 28 27 27 28 29 30 32 33 33 34 34 35 35 36
20 20 20 20 20 20 21 21 21 22 23 23 23 23 24 24 24 24 24 24 24 23 24 25 25 26 26 26 27 27 26 26 26 27 30 31 32 33 34 34 35 35 35
20 20 20 20 21 21 21 21 21 22 23 23 23 23 24 24 23 23 23 24 23 23 23 24 24 24 24 24 25 26 26 26 27 26 27 29 30 31 33 33 34 34 35
20 20 20 19 20 20 20 21 21 22 22 23 23 23 23 23 22 22 23 23 23 23 22 22 23 23 23 23 23 24 26 26 27 27 28 29 29 30 31 31 32 33 34
19 19 19 19 18 18 19 19 20 21 21 22 22 22 22 22 22 21 22 22 23 22 22 21 22 22 22 22 22 22 24 25 26 27 27 28 28 29 30 30 31 32 33
17 18 17 17 18 17 17 17 18 20 20 21 21 22 21 22 21 21 22 22 23 22 22 22 21 21 21 21 22 22 23 24 24 26 27 27 27 28 29 31 31 31 32
16 16 17 17 17 17 17 17 18 20 20 20 21 21 22 22 22 22 22 23 23 23 23 23 22 21 21 22 22 22 24 24 24 26 26 27 27 28 29 30 30 31 31
15 15 16 15 15 16 16 16 18 19 19 20 21 22 22 22 22 22 23 23 23 23 23 23 23 23 22 22 22 23 23 23 23 24 25 25 26 27 28 29 30 30 30
15 14 14 14 15 15 16 17 18 18 19 20 21 21 21 21 22 22 22 22 22 23 23 23 24 24 23 23 23 23 23 23 24 23 24 24 25 25 27 28 29 30 30
13 13 13 14 15 16 16 17 18 18 19 20 21 21 22 22 22 22 22 22 23 23 24 24 25 25 25 24 24 24 23 24 25 25 24 25 25 26 26 27 28 29 29
13 14 14 15 16 16 17 18 18 19 19 20 21 22 22 22 23 23 23 23 24 24 25 25 26 25 25 25 25 25 25 25 25 25 25 25 25 26 26 26 26 26 26
13 13 14 15 16 17 18 18 19 19 19 20 21 21 22 23 23 23 23 24 24 25 25 26 26 26 26 26 25 25 25 25 25 24 24 24 24 24 24 24 25 25 25
12 13 13 15 16 17 17 18 19 19 20 20 21 21 22 23 23 24 24 25 25 25 25 26 25 25 25 25 25 25 24 23 24 24 24 24 24 24 23 23 23 24 25
Wind_Direction
286 286 289 291 293 294 292 289 287 286 283 282 283 282 279 279 279 279 278 276 274 271 270 268 265 264 264 262 259 257 256 254 253 252 250 249 248 248 248 247 245 244 243
287 286 286 290 293 294 293 290 286 286 285 283 283 282 280 280 279 280 278 277 274 272 271 267 266 265 265 264 262 260 258 257 255 253 250 249 248 248 249 248 246 245 245
286 288 288 288 288 290 293 292 290 286 285 283 282 282 282 281 280 280 279 278 275 272 271 269 267 266 265 264 263 262 259 257 256 254 252 250 250 249 249 248 248 246 245
286 287 289 288 288 290 292 291 288 288 288 286 284 283 283 283 282 281 280 278 277 275 273 272 270 269 267 265 264 263 261 258 257 254 252 251 251 251 250 249 248 247 247
286 289 290 291 290 290 290 290 290 291 291 289 287 286 284 283 283 282 282 281 279 276 275 274 272 269 267 265 265 262 260 259 257 255 252 252 251 250 250 249 248 249 249
289 290 291 293 291 291 290 289 290 292 291 291 290 289 287 286 287 286 284 284 283 280 277 275 272 269 267 265 265 262 260 258 257 256 253 250 250 251 251 250 248 249 250
290 291 294 296 292 290 290 290 290 292 292 291 290 290 291 292 291 290 289 287 284 282 281 278 275 272 268 265 263 260 259 259 257 255 253 251 251 251 252 252 250 250 250
290 290 291 292 294 293 291 291 291 292 292 292 291 292 292 293 294 295 294 290 286 283 282 281 278 275 272 268 266 262 260 259 257 255 253 252 251 252 253 252 251 250 251
287 287 289 290 294 295 293 291 290 292 293 293 293 292 293 295 296 297 295 292 289 287 285 283 281 276 274 272 269 266 262 259 258 256 255 253 253 253 253 252 252 250 249
285 287 289 290 293 296 294 293 295 294 294 294 294 295 295 296 297 296 295 293 291 288 286 285 283 280 276 274 271 269 266 264 261 258 256 253 253 254 253 252 250 249 249
288 291 295 291 292 294 294 295 297 296 295 295 295 294 296 297 297 297 295 293 292 291 288 286 283 280 277 274 272 271 269 267 263 260 256 254 253 254 254 253 251 250 250
288 290 294 295 291 291 293 295 296 296 297 297 297 296 297 297 298 299 296 294 293 292 290 287 283 281 278 275 274 272 270 269 266 263 258 255 254 254 254 253 251 250 250
290 289 293 295 291 289 292 295 296 297 298 298 299 299 299 299 299 299 298 296 295 294 292 290 287 283 281 278 276 274 272 269 267 264 260 257 255 255 255 253 252 253 253
291 291 294 295 294 291 292 293 295 297 299 300 301 301 302 301 300 300 299 298 296 295 294 292 289 286 284 280 278 277 274 270 268 265 262 259 258 257 257 256 255 257 257
291 292 294 296 296 294 295 295 296 297 299 302 304 304 304 303 302 301 300 299 297 296 295 293 292 289 288 284 280 277 275 272 271 268 264 261 260 259 259 258 257 256 256
289 292 293 293 293 293 295 295 298 298 299 302 305 307 306 304 303 304 302 300 298 296 294 294 295 292 289 287 283 279 278 273 272 271 268 264 262 261 261 260 258 257 256
289 292 294 294 294 295 295 297 298 298 299 301 304 307 307 305 306 305 304 302 301 299 297 296 296 296 292 288 284 282 279 275 273 272 270 267 265 262 262 260 258 258 256
289 292 293 294 298 299 299 299 299 300 300 302 304 307 307 306 306 305 305 304 303 301 300 299 298 296 294 292 288 285 283 278 275 273 272 270 266 262 262 260 259 258 257
293 295 292 297 298 300 302 302 303 304 304 304 306 306 306 307 307 307 306 305 303 301 300 299 297 295 294 294 292 287 284 280 277 274 273 272 268 263 262 260 259 258 256
296 296 297 298 299 303 305 303 305 306 307 309 309 310 308 307 309 309 307 305 303 302 300 299 297 295 294 293 292 289 285 282 280 278 275 271 268 264 263 261 259 258 256
301 301 303 303 303 306 308 308 310 310 310 312 312 311 310 309 311 311 309 306 303 302 300 297 297 298 295 293 291 290 288 285 283 281 276 274 272 269 266 263 260 259 257
305 306 309 310 311 311 311 311 312 311 312 313 313 313 313 313 313 312 311 309 306 305 302 301 301 299 297 294 292 291 290 287 284 283 281 277 276 273 269 263 261 259 257
308 311 314 315 314 314 313 313 313 314 313 313 315 315 314 314 314 314 313 311 309 308 306 303 302 301 297 294 292 289 289 289 286 285 284 282 278 276 274 269 263 261 257
311 310 313 316 318 320 319 318 318 316 314 314 314 315 315 315 315 314 313 310 308 307 306 304 301 301 299 296 291 289 289 290 290 288 285 283 280 277 273 270 266 261 258
313 313 314 316 318 319 320 320 320 319 318 317 317 317 317 317 317 314 313 312 310 309 307 305 303 300 299 298 295 292 291 289 290 288 285 284 281 279 275 269 266 262 258
316 317 318 321 322 322 322 323 323 322 321 319 318 318 317 318 319 316 315 314 313 312 309 308 306 303 302 301 297 293 292 291 290 289 287 285 282 280 278 272 268 264 260
Height
5847 5846 5845 5844 5842 5840 5838 5837 5836 5835 5834 5833 5832 5831 5830 5829 5828 5827 5827 5827 5826 5826 5825 5825 5825 5826 5826 5826 5827 5828 5829 5830 5831 5831 5832 5833 5835 5836 5838 5839 5841 5843 5844
5843 5842 5841 5839 5838 5836 5834 5833 5832 5831 5830 5828 5827 5826 5825 5824 5823 5822 5821 5821 5820 5819 5819 5819 5819 5819 5819 5820 5820 5821 5822 5823 5824 5825 5826 5827 5828 5830 5831 5833 5835 5836 5838
5839 5838 5837 5835 5834 5832 5830 5829 5827 5826 5825 5823 5822 5821 5820 5819 5818 5817 5815 5814 5814 5813 5813 5812 5812 5812 5812 5813 5813 5814 5814 5815 5816 5818 5819 5820 5822 5823 5825 5826 5828 5830 5831
5835 5833 5832 5831 5829 5828 5826 5825 5823 5822 5820 5819 5817 5816 5815 5814 5813 5811 5810 5808 5807 5806 5805 5805 5804 5804 5805 5805 5805 5806 5807 5807 5809 5810 5811 5813 5815 5816 5818 5819 5821 5823 5824
5830 5829 5828 5826 5825 5823 5822 5820 5819 5817 5816 5814 5812 5811 5809 5808 5807 5805 5803 5801 5800 5798 5797 5797 5796 5796 5796 5796 5797 5797 5798 5799 5801 5802 5803 5805 5807 5808 5810 5811 5813 5815 5817
5825 5824 5824 5822 5820 5819 5817 5816 5814 5813 5811 5809 5807 5806 5804 5802 5800 5798 5797 5795 5793 5791 5789 5788 5787 5787 5787 5788 5788 5788 5789 5791 5792 5793 5795 5796 5798 5800 5802 5803 5805 5807 5809
5821 5820 5819 5818 5816 5814 5813 5811 5810 5808 5806 5804 5802 5801 5799 5796 5794 5792 5790 5787 5785 5783 5782 5780 5779 5779 5778 5779 5779 5779 5780 5781 5783 5784 5786 5787 5789 5791 5793 5795 5797 5798 5800
5817 5816 5815 5813 5812 5810 5808 5807 5805 5803 5801 5799 5797 5795 5794 5792 5788 5786 5783 5780 5778 5776 5775 5774 5772 5771 5771 5770 5770 5770 5771 5772 5773 5775 5776 5778 5780 5782 5784 5786 5787 5789 5792
5813 5812 5810 5809 5807 5806 5804 5802 5800 5798 5796 5794 5792 5790 5788 5785 5783 5780 5776 5773 5771 5769 5768 5767 5765 5764 5763 5762 5762 5762 5763 5763 5764 5765 5767 5769 5771 5772 5774 5776 5778 5780 5782
5808 5807 5806 5804 5803 5801 5799 5797 5794 5793 5791 5789 5787 5784 5782 5779 5777 5774 5771 5767 5765 5763 5761 5759 5758 5757 5756 5755 5754 5754 5754 5754 5755 5756 5757 5759 5761 5762 5764 5766 5768 5770 5772
5804 5802 5801 5799 5798 5796 5794 5793 5790 5788 5786 5783 5781 5778 5776 5773 5770 5768 5765 5761 5758 5756 5754 5752 5751 5749 5748 5747 5746 5746 5746 5746 5747 5747 5748 5749 5751 5752 5753 5756 5758 5761 5763
5799 5798 5796 5794 5793 5791 5789 5787 5785 5783 5780 5778 5775 5772 5770 5767 5764 5761 5758 5755 5752 5750 5747 5745 5744 5742 5741 5739 5739 5738 5738 5738 5738 5738 5739 5740 5741 5742 5744 5746 5748 5751 5753
5794 5793 5791 5789 5787 5785 5784 5782 5779 5777 5775 5772 5769 5766 5763 5760 5757 5755 5752 5749 5746 5743 5740 5738 5736 5735 5733 5732 5731 5730 5730 5730 5729 5730 5730 5731 5732 5733 5735 5737 5739 5740 5743
5790 5788 5786 5784 5782 5780 5779 5777 5774 5772 5769 5766 5763 5760 5757 5754 5751 5748 5745 5743 5740 5738 5734 5732 5729 5727 5726 5724 5723 5722 5722 5721 5721 5721 5721 5722 5723 5724 5726 5727 5729 5731 5732
5784 5783 5781 5779 5778 5776 5774 5771 5769 5766 5764 5761 5758 5755 5751 5748 5745 5742 5739 5736 5734 5732 5729 5726 5723 5720 5718 5717 5715 5715 5714 5713 5713 5712 5712 5713 5714 5715 5716 5717 5719 5721 5722
5779 5778 5776 5774 5772 5770 5768 5766 5763 5761 5758 5755 5752 5749 5746 5742 5739 5736 5733 5730 5727 5725 5723 5720 5717 5714 5712 5710 5708 5707 5706 5706 5705 5704 5704 5704 5705 5706 5707 5708 5709 5710 5712
5774 5773 5771 5769 5767 5765 5763 5760 5758 5755 5753 5750 5747 5744 5740 5737 5733 5730 5727 5724 5721 5719 5716 5714 5711 5708 5705 5704 5702 5701 5699 5698 5697 5697 5697 5697 5697 5697 5697 5698 5699 5701 5702
5769 5767 5766 5764 5762 5760 5757 5755 5752 5750 5747 5745 5742 5738 5735 5731 5728 5725 5721 5718 5715 5713 5710 5708 5705 5702 5700 5698 5696 5694 5692 5691 5690 5689 5688 5688 5688 5688 5688 5689 5690 5691 5693
5764 5762 5761 5759 5757 5755 5752 5750 5748 5745 5742 5739 5736 5733 5729 5726 5723 5719 5716 5713 5710 5707 5704 5702 5700 5697 5694 5692 5690 5688 5686 5684 5683 5682 5681 5680 5680 5680 5680 5681 5681 5682 5684
5760 5758 5757 5754 5752 5750 5748 5746 5743 5740 5737 5734 5731 5728 5724 5721 5718 5714 5711 5707 5704 5701 5699 5696 5694 5692 5689 5686 5684 5682 5680 5678 5676 5674 5673 5672 5672 5671 5672 5672 5673 5673 5674
5756 5754 5752 5750 5748 5745 5744 5741 5739 5736 5733 5729 5726 5723 5719 5716 5712 5709 5705 5702 5699 5696 5693 5690 5688 5686 5683 5680 5678 5676 5673 5671 5669 5667 5666 5665 5664 5663 5663 5663 5663 5664 5665
5753 5751 5749 5746 5744 5742 5739 5737 5734 5731 5728 5725 5721 5718 5714 5711 5708 5704 5700 5697 5694 5690 5687 5685 5682 5679 5677 5675 5672 5669 5667 5664 5663 5661 5659 5657 5656 5655 5655 5655 5655 5656 5656
5750 5748 5745 5743 5740 5738 5736 5733 5730 5726 5723 5720 5716 5713 5709 5706 5702 5699 5696 5692 5688 5685 5682 5679 5676 5673 5670 5668 5665 5663 5660 5658 5656 5653 5651 5650 5648 5647 5646 5645 5646 5646 5647
5747 5745 5743 5740 5737 5735 5732 5729 5725 5722 5718 5715 5712 5708 5704 5701 5697 5694 5690 5686 5683 5679 5676 5672 5670 5666 5663 5660 5657 5655 5653 5651 5648 5646 5643 5642 5641 5639 5638 5637 5637 5638 5638
5744 5742 5740 5737 5734 5731 5728 5725 5721 5717 5714 5710 5707 5703 5700 5696 5692 5688 5684 5681 5677 5673 5669 5665 5662 5659 5655 5652 5649 5647 5645 5642 5640 5638 5636 5634 5633 5631 5630 5629 5629 5630 5630
5741 5739 5737 5734 5731 5728 5725 5721 5718 5714 5710 5707 5703 5699 5695 5691 5687 5682 5678 5674 5670 5666 5662 5658 5655 5651 5648 5645 5642 5639 5636 5634 5632 5631 5629 5627 5625 5623 5622 5622 5622 5622 5622